#datetime,building,power
2023-04-12T00:01:00,pkn,2.40
2023-04-12T00:02:00,pkn,2.40
2023-04-12T00:03:00,pkn,4.80
2023-04-12T00:05:00,pkn,10.80
2023-04-12T00:06:00,pkn,6.00
2023-04-12T00:07:00,pkn,4.80
2023-04-12T00:08:00,pkn,4.80
2023-04-12T00:10:00,pkn,10.80
2023-04-12T00:12:00,pkn,10.80
2023-04-12T00:13:00,pkn,4.80
2023-04-12T00:15:00,pkn,10.80
2023-04-12T00:17:00,pkn,10.80
2023-04-12T00:18:00,pkn,3.60
2023-04-12T00:19:00,pkn,2.40
2023-04-12T00:20:00,pkn,9.60
2023-04-12T00:21:00,pkn,4.80
2023-04-12T00:23:00,pkn,10.80
2023-04-12T00:24:00,pkn,4.80
2023-04-12T00:26:00,pkn,10.80
2023-04-12T00:28:00,pkn,9.60
2023-04-12T00:30:00,pkn,2.40
2023-04-12T00:32:00,pkn,2.40
2023-04-12T00:33:00,pkn,1.20
2023-04-12T00:35:00,pkn,2.40
2023-04-12T00:38:00,pkn,2.40
2023-04-12T00:39:00,pkn,1.20
2023-04-12T00:41:00,pkn,2.40
2023-04-12T00:43:00,pkn,2.40
2023-04-12T00:44:00,pkn,4.80
2023-04-12T00:46:00,pkn,9.60
2023-04-12T00:47:00,pkn,6.00
2023-04-12T00:49:00,pkn,10.80
2023-04-12T00:51:00,pkn,9.60
2023-04-12T00:52:00,pkn,6.00
2023-04-12T00:54:00,pkn,9.60
2023-04-12T00:55:00,pkn,4.80
2023-04-12T00:57:00,pkn,2.40
2023-04-12T00:59:00,pkn,2.40
2023-04-12T01:00:00,pkn,1.20
2023-04-12T01:02:00,pkn,2.40
2023-04-12T01:04:00,pkn,2.40
2023-04-12T01:06:00,pkn,2.40
2023-04-12T01:08:00,pkn,2.40
2023-04-12T01:10:00,pkn,2.40
2023-04-12T01:13:00,pkn,2.40
2023-04-12T01:15:00,pkn,2.40
2023-04-12T01:16:00,pkn,2.40
2023-04-12T01:17:00,pkn,4.80
2023-04-12T01:19:00,pkn,10.80
2023-04-12T01:20:00,pkn,3.60
2023-04-12T01:22:00,pkn,10.80
2023-04-12T01:23:00,pkn,4.80
2023-04-12T01:24:00,pkn,6.00
2023-04-12T01:26:00,pkn,8.40
2023-04-12T01:27:00,pkn,1.20
2023-04-12T01:28:00,pkn,1.20
2023-04-12T01:30:00,pkn,1.20
2023-04-12T01:31:00,pkn,1.20
2023-04-12T01:33:00,pkn,2.40
2023-04-12T01:34:00,pkn,1.20
2023-04-12T01:36:00,pkn,1.20
2023-04-12T01:38:00,pkn,1.20
2023-04-12T01:40:00,pkn,2.40
2023-04-12T01:42:00,pkn,1.20
2023-04-12T01:43:00,pkn,1.20
2023-04-12T01:45:00,pkn,2.40
2023-04-12T01:47:00,pkn,1.20
2023-04-12T01:49:00,pkn,2.40
2023-04-12T01:51:00,pkn,1.20
2023-04-12T01:52:00,pkn,1.20
2023-04-12T01:53:00,pkn,2.40
2023-04-12T01:55:00,pkn,9.60
2023-04-12T01:56:00,pkn,4.80
2023-04-12T01:58:00,pkn,9.60
2023-04-12T01:59:00,pkn,4.80
2023-04-12T02:01:00,pkn,10.80
2023-04-12T02:02:00,pkn,1.20
2023-04-12T02:04:00,pkn,2.40
2023-04-12T02:06:00,pkn,1.20
2023-04-12T02:08:00,pkn,2.40
2023-04-12T02:12:00,pkn,3.60
2023-04-12T02:14:00,pkn,1.20
2023-04-12T02:15:00,pkn,1.20
2023-04-12T02:18:00,pkn,2.40
2023-04-12T02:20:00,pkn,2.40
2023-04-12T02:22:00,pkn,1.20
2023-04-12T02:23:00,pkn,1.20
2023-04-12T02:24:00,pkn,1.20
2023-04-12T02:26:00,pkn,1.20
2023-04-12T02:28:00,pkn,2.40
2023-04-12T02:30:00,pkn,1.20
2023-04-12T02:31:00,pkn,1.20
2023-04-12T02:33:00,pkn,1.20
2023-04-12T02:34:00,pkn,1.20
2023-04-12T02:36:00,pkn,7.20
2023-04-12T02:38:00,pkn,9.60
2023-04-12T02:40:00,pkn,9.60
2023-04-12T02:41:00,pkn,4.80
2023-04-12T02:43:00,pkn,8.40
2023-04-12T02:45:00,pkn,2.40
2023-04-12T02:47:00,pkn,1.20
2023-04-12T02:49:00,pkn,1.20
2023-04-12T02:51:00,pkn,2.40
2023-04-12T02:52:00,pkn,1.20
2023-04-12T02:53:00,pkn,1.20
2023-04-12T02:55:00,pkn,2.40
2023-04-12T02:57:00,pkn,1.20
2023-04-12T02:59:00,pkn,2.40
2023-04-12T03:01:00,pkn,1.20
2023-04-12T03:03:00,pkn,1.20
2023-04-12T03:04:00,pkn,1.20
2023-04-12T03:05:00,pkn,1.20
2023-04-12T03:07:00,pkn,1.20
2023-04-12T03:09:00,pkn,2.40
2023-04-12T03:11:00,pkn,1.20
2023-04-12T03:13:00,pkn,2.40
2023-04-12T03:15:00,pkn,1.20
2023-04-12T03:17:00,pkn,2.40
2023-04-12T03:19:00,pkn,2.40
2023-04-12T03:21:00,pkn,1.20
2023-04-12T03:22:00,pkn,1.20
2023-04-12T03:24:00,pkn,2.40
2023-04-12T03:26:00,pkn,1.20
2023-04-12T03:28:00,pkn,8.40
2023-04-12T03:29:00,pkn,4.80
2023-04-12T03:31:00,pkn,9.60
2023-04-12T03:33:00,pkn,10.80
2023-04-12T03:35:00,pkn,8.40
2023-04-12T03:36:00,pkn,6.00
2023-04-12T03:38:00,pkn,1.20
2023-04-12T03:40:00,pkn,2.40
2023-04-12T03:41:00,pkn,1.20
2023-04-12T03:44:00,pkn,2.40
2023-04-12T03:46:00,pkn,1.20
2023-04-12T03:47:00,pkn,1.20
2023-04-12T03:49:00,pkn,2.40
2023-04-12T03:51:00,pkn,1.20
2023-04-12T03:53:00,pkn,2.40
2023-04-12T03:54:00,pkn,1.20
2023-04-12T03:57:00,pkn,2.40
2023-04-12T03:59:00,pkn,2.40
2023-04-12T04:01:00,pkn,1.20
2023-04-12T04:02:00,pkn,1.20
2023-04-12T04:04:00,pkn,1.20
2023-04-12T04:06:00,pkn,2.40
2023-04-12T04:07:00,pkn,1.20
2023-04-12T04:09:00,pkn,1.20
2023-04-12T04:10:00,pkn,1.20
2023-04-12T04:12:00,pkn,2.40
2023-04-12T04:14:00,pkn,1.20
2023-04-12T04:16:00,pkn,2.40
2023-04-12T04:17:00,pkn,1.20
2023-04-12T04:20:00,pkn,2.40
2023-04-12T04:21:00,pkn,2.40
2023-04-12T04:22:00,pkn,1.20
2023-04-12T04:23:00,pkn,1.20
2023-04-12T04:25:00,pkn,2.40
2023-04-12T04:26:00,pkn,2.40
2023-04-12T04:27:00,pkn,2.40
2023-04-12T04:29:00,pkn,2.40
2023-04-12T04:31:00,pkn,1.20
2023-04-12T04:32:00,pkn,1.20
2023-04-12T04:34:00,pkn,1.20
2023-04-12T04:36:00,pkn,2.40
2023-04-12T04:38:00,pkn,1.20
2023-04-12T04:40:00,pkn,2.40
2023-04-12T04:42:00,pkn,9.60
2023-04-12T04:44:00,pkn,8.40
2023-04-12T04:46:00,pkn,10.80
2023-04-12T04:48:00,pkn,7.20
2023-04-12T04:50:00,pkn,2.40
2023-04-12T04:52:00,pkn,1.20
2023-04-12T04:53:00,pkn,1.20
2023-04-12T04:55:00,pkn,1.20
2023-04-12T04:56:00,pkn,1.20
2023-04-12T04:58:00,pkn,1.20
2023-04-12T04:59:00,pkn,1.20
2023-04-12T05:01:00,pkn,2.40
2023-04-12T05:03:00,pkn,1.20
2023-04-12T05:05:00,pkn,1.20
2023-04-12T05:06:00,pkn,1.20
2023-04-12T05:08:00,pkn,1.20
2023-04-12T05:10:00,pkn,2.40
2023-04-12T05:12:00,pkn,1.20
2023-04-12T05:14:00,pkn,2.40
2023-04-12T05:16:00,pkn,1.20
2023-04-12T05:18:00,pkn,2.40
2023-04-12T05:20:00,pkn,1.20
2023-04-12T05:21:00,pkn,1.20
2023-04-12T05:22:00,pkn,1.20
2023-04-12T05:24:00,pkn,1.20
2023-04-12T05:26:00,pkn,2.40
2023-04-12T05:28:00,pkn,1.20
2023-04-12T05:29:00,pkn,1.20
2023-04-12T05:31:00,pkn,1.20
2023-04-12T05:33:00,pkn,2.40
2023-04-12T05:35:00,pkn,1.20
2023-04-12T05:37:00,pkn,2.40
2023-04-12T05:39:00,pkn,1.20
2023-04-12T05:41:00,pkn,1.20
2023-04-12T05:43:00,pkn,2.40
2023-04-12T05:45:00,pkn,1.20
2023-04-12T05:47:00,pkn,1.20
2023-04-12T05:49:00,pkn,2.40
2023-04-12T05:52:00,pkn,2.40
2023-04-12T05:53:00,pkn,1.20
2023-04-12T05:56:00,pkn,2.40
2023-04-12T05:57:00,pkn,1.20
2023-04-12T05:59:00,pkn,1.20
2023-04-12T06:00:00,pkn,1.20
2023-04-12T06:02:00,pkn,2.40
2023-04-12T06:04:00,pkn,1.20
2023-04-12T06:05:00,pkn,1.20
2023-04-12T06:07:00,pkn,1.20
2023-04-12T06:09:00,pkn,9.60
2023-04-12T06:11:00,pkn,10.80
2023-04-12T06:12:00,pkn,4.80
2023-04-12T06:14:00,pkn,10.80
2023-04-12T06:16:00,pkn,2.40
2023-04-12T06:17:00,pkn,1.20
2023-04-12T06:19:00,pkn,1.20
2023-04-12T06:20:00,pkn,1.20
2023-04-12T06:22:00,pkn,1.20
2023-04-12T06:24:00,pkn,2.40
2023-04-12T06:26:00,pkn,1.20
2023-04-12T06:28:00,pkn,2.40
2023-04-12T06:30:00,pkn,8.40
2023-04-12T06:31:00,pkn,4.80
2023-04-12T06:33:00,pkn,9.60
2023-04-12T06:35:00,pkn,10.80
2023-04-12T06:37:00,pkn,8.40
2023-04-12T06:38:00,pkn,6.00
2023-04-12T06:40:00,pkn,8.40
2023-04-12T06:42:00,pkn,9.60
2023-04-12T06:43:00,pkn,4.80
2023-04-12T06:45:00,pkn,1.20
2023-04-12T06:47:00,pkn,2.40
2023-04-12T06:49:00,pkn,1.20
2023-04-12T06:51:00,pkn,1.20
2023-04-12T06:52:00,pkn,1.20
2023-04-12T06:54:00,pkn,2.40
2023-04-12T06:57:00,pkn,2.40
2023-04-12T06:59:00,pkn,1.20
2023-04-12T07:01:00,pkn,1.20
2023-04-12T07:02:00,pkn,1.20
2023-04-12T07:04:00,pkn,1.20
2023-04-12T07:06:00,pkn,2.40
2023-04-12T07:08:00,pkn,1.20
2023-04-12T07:10:00,pkn,7.20
2023-04-12T07:12:00,pkn,10.80
2023-04-12T07:13:00,pkn,3.60
2023-04-12T07:14:00,pkn,6.00
2023-04-12T07:15:00,pkn,4.80
2023-04-12T07:17:00,pkn,8.40
2023-04-12T07:19:00,pkn,3.60
2023-04-12T07:22:00,pkn,2.40
2023-04-12T07:25:00,pkn,2.40
2023-04-12T07:27:00,pkn,1.20
2023-04-12T07:29:00,pkn,1.20
2023-04-12T07:30:00,pkn,1.20
2023-04-12T07:31:00,pkn,1.20
2023-04-12T07:33:00,pkn,1.20
2023-04-12T07:35:00,pkn,2.40
2023-04-12T07:37:00,pkn,1.20
2023-04-12T07:39:00,pkn,1.20
2023-04-12T07:40:00,pkn,1.20
2023-04-12T07:42:00,pkn,1.20
2023-04-12T07:44:00,pkn,6.00
2023-04-12T07:46:00,pkn,9.60
2023-04-12T07:48:00,pkn,9.60
2023-04-12T07:50:00,pkn,9.60
2023-04-12T07:51:00,pkn,4.80
2023-04-12T07:53:00,pkn,9.60
2023-04-12T07:55:00,pkn,9.60
2023-04-12T07:57:00,pkn,9.60
2023-04-12T07:58:00,pkn,4.80
2023-04-12T07:59:00,pkn,4.80
2023-04-12T08:01:00,pkn,9.60
2023-04-12T08:03:00,pkn,9.60
2023-04-12T08:05:00,pkn,9.60
2023-04-12T08:07:00,pkn,7.20
2023-04-12T08:08:00,pkn,1.20
2023-04-12T08:10:00,pkn,1.20
2023-04-12T08:12:00,pkn,2.40
2023-04-12T08:14:00,pkn,1.20
2023-04-12T08:16:00,pkn,1.20
2023-04-12T08:17:00,pkn,1.20
2023-04-12T08:19:00,pkn,2.40
2023-04-12T08:21:00,pkn,1.20
2023-04-12T08:23:00,pkn,6.00
2023-04-12T08:25:00,pkn,9.60
2023-04-12T08:26:00,pkn,4.80
2023-04-12T08:28:00,pkn,9.60
2023-04-12T08:29:00,pkn,4.80
2023-04-12T08:31:00,pkn,9.60
2023-04-12T08:33:00,pkn,10.80
2023-04-12T08:34:00,pkn,2.40
2023-04-12T08:36:00,pkn,2.40
2023-04-12T08:39:00,pkn,2.40
2023-04-12T08:41:00,pkn,1.20
2023-04-12T08:43:00,pkn,1.20
2023-04-12T08:45:00,pkn,2.40
2023-04-12T08:47:00,pkn,1.20
2023-04-12T08:50:00,pkn,2.40
2023-04-12T08:51:00,pkn,1.20
2023-04-12T08:53:00,pkn,1.20
2023-04-12T08:55:00,pkn,1.20
2023-04-12T08:56:00,pkn,1.20
2023-04-12T08:57:00,pkn,7.20
2023-04-12T08:58:00,pkn,3.60
2023-04-12T09:00:00,pkn,10.80
2023-04-12T09:02:00,pkn,10.80
2023-04-12T09:04:00,pkn,9.60
2023-04-12T09:06:00,pkn,9.60
2023-04-12T09:07:00,pkn,6.00
2023-04-12T09:09:00,pkn,9.60
2023-04-12T09:11:00,pkn,9.60
2023-04-12T09:13:00,pkn,9.60
2023-04-12T09:15:00,pkn,10.80
2023-04-12T09:17:00,pkn,10.80
2023-04-12T09:19:00,pkn,7.20
2023-04-12T09:20:00,pkn,2.40
2023-04-12T09:21:00,pkn,2.40
2023-04-12T09:23:00,pkn,3.60
2023-04-12T09:25:00,pkn,3.60
2023-04-12T09:26:00,pkn,2.40
2023-04-12T09:27:00,pkn,2.40
2023-04-12T09:29:00,pkn,3.60
2023-04-12T09:30:00,pkn,1.20
2023-04-12T09:32:00,pkn,6.00
2023-04-12T09:34:00,pkn,9.60
2023-04-12T09:36:00,pkn,9.60
2023-04-12T09:37:00,pkn,6.00
2023-04-12T09:38:00,pkn,4.80
2023-04-12T09:39:00,pkn,3.60
2023-04-12T09:41:00,pkn,10.80
2023-04-12T09:43:00,pkn,9.60
2023-04-12T09:44:00,pkn,4.80
2023-04-12T09:45:00,pkn,3.60
2023-04-12T09:47:00,pkn,1.20
2023-04-12T09:49:00,pkn,1.20
2023-04-12T09:50:00,pkn,1.20
2023-04-12T09:52:00,pkn,2.40
2023-04-12T09:54:00,pkn,1.20
2023-04-12T09:56:00,pkn,2.40
2023-04-12T09:57:00,pkn,1.20
2023-04-12T09:59:00,pkn,1.20
2023-04-12T10:01:00,pkn,2.40
2023-04-12T10:03:00,pkn,1.20
2023-04-12T10:04:00,pkn,1.20
2023-04-12T10:06:00,pkn,7.20
2023-04-12T10:08:00,pkn,9.60
2023-04-12T10:09:00,pkn,6.00
2023-04-12T10:11:00,pkn,9.60
2023-04-12T10:13:00,pkn,9.60
2023-04-12T10:14:00,pkn,4.80
2023-04-12T10:16:00,pkn,8.40
2023-04-12T10:17:00,pkn,1.20
2023-04-12T10:19:00,pkn,2.40
2023-04-12T10:22:00,pkn,2.40
2023-04-12T10:24:00,pkn,1.20
2023-04-12T10:26:00,pkn,4.80
2023-04-12T10:28:00,pkn,9.60
2023-04-12T10:30:00,pkn,10.80
2023-04-12T10:32:00,pkn,9.60
2023-04-12T10:34:00,pkn,8.40
2023-04-12T10:36:00,pkn,10.80
2023-04-12T10:37:00,pkn,4.80
2023-04-12T10:39:00,pkn,9.60
2023-04-12T10:41:00,pkn,9.60
2023-04-12T10:42:00,pkn,4.80
2023-04-12T10:44:00,pkn,9.60
2023-04-12T10:46:00,pkn,9.60
2023-04-12T10:47:00,pkn,4.80
2023-04-12T10:49:00,pkn,9.60
2023-04-12T10:51:00,pkn,10.80
2023-04-12T10:53:00,pkn,9.60
2023-04-12T10:55:00,pkn,9.60
2023-04-12T10:57:00,pkn,9.60
2023-04-12T10:58:00,pkn,4.80
2023-04-12T11:00:00,pkn,9.60
2023-04-12T11:01:00,pkn,6.00
2023-04-12T11:03:00,pkn,9.60
2023-04-12T11:04:00,pkn,4.80
2023-04-12T11:06:00,pkn,9.60
2023-04-12T11:08:00,pkn,9.60
2023-04-12T11:09:00,pkn,6.00
2023-04-12T11:11:00,pkn,8.40
2023-04-12T11:12:00,pkn,6.00
2023-04-12T11:14:00,pkn,8.40
2023-04-12T11:16:00,pkn,9.60
2023-04-12T11:18:00,pkn,3.60
2023-04-12T11:20:00,pkn,1.20
2023-04-12T11:22:00,pkn,1.20
2023-04-12T11:23:00,pkn,1.20
2023-04-12T11:25:00,pkn,1.20
2023-04-12T11:27:00,pkn,2.40
2023-04-12T11:30:00,pkn,6.00
2023-04-12T11:32:00,pkn,9.60
2023-04-12T11:33:00,pkn,6.00
2023-04-12T11:35:00,pkn,9.60
2023-04-12T11:37:00,pkn,9.60
2023-04-12T11:39:00,pkn,10.80
2023-04-12T11:40:00,pkn,3.60
2023-04-12T11:42:00,pkn,10.80
2023-04-12T11:44:00,pkn,9.60
2023-04-12T11:45:00,pkn,4.80
2023-04-12T11:47:00,pkn,3.60
2023-04-12T11:48:00,pkn,1.20
2023-04-12T11:50:00,pkn,1.20
2023-04-12T11:52:00,pkn,1.20
2023-04-12T11:53:00,pkn,1.20
2023-04-12T11:54:00,pkn,2.40
2023-04-12T11:56:00,pkn,1.20
2023-04-12T11:57:00,pkn,1.20
2023-04-12T11:59:00,pkn,1.20
2023-04-12T12:01:00,pkn,1.20
2023-04-12T12:03:00,pkn,2.40
2023-04-12T12:04:00,pkn,3.60
2023-04-12T12:06:00,pkn,9.60
2023-04-12T12:07:00,pkn,4.80
2023-04-12T12:09:00,pkn,8.40
2023-04-12T12:10:00,pkn,6.00
2023-04-12T12:11:00,pkn,3.60
2023-04-12T12:13:00,pkn,9.60
2023-04-12T12:14:00,pkn,3.60
2023-04-12T12:16:00,pkn,3.60
2023-04-12T12:18:00,pkn,1.20
2023-04-12T12:21:00,pkn,1.20
2023-04-12T12:23:00,pkn,1.20
2023-04-12T12:27:00,pkn,3.60
2023-04-12T12:29:00,pkn,2.40
2023-04-12T12:30:00,pkn,2.40
2023-04-12T12:31:00,pkn,1.20
2023-04-12T12:33:00,pkn,1.20
2023-04-12T12:35:00,pkn,3.60
2023-04-12T12:37:00,pkn,6.00
2023-04-12T12:39:00,pkn,9.60
2023-04-12T12:41:00,pkn,8.40
2023-04-12T12:42:00,pkn,4.80
2023-04-12T12:44:00,pkn,8.40
2023-04-12T12:46:00,pkn,6.00
2023-04-12T12:48:00,pkn,1.20
2023-04-12T12:50:00,pkn,1.20
2023-04-12T12:52:00,pkn,1.20
2023-04-12T12:54:00,pkn,1.20
2023-04-12T12:56:00,pkn,1.20
2023-04-12T12:59:00,pkn,1.20
2023-04-12T13:00:00,pkn,1.20
2023-04-12T13:02:00,pkn,1.20
2023-04-12T13:05:00,pkn,1.20
2023-04-12T13:07:00,pkn,1.20
2023-04-12T13:09:00,pkn,1.20
2023-04-12T13:12:00,pkn,3.60
2023-04-12T13:13:00,pkn,7.20
2023-04-12T13:14:00,pkn,2.40
2023-04-12T13:15:00,pkn,9.60
2023-04-12T13:16:00,pkn,7.20
2023-04-12T13:18:00,pkn,13.20
2023-04-12T13:19:00,pkn,7.20
2023-04-12T13:21:00,pkn,7.20
2023-04-12T13:22:00,pkn,1.20
2023-04-12T13:24:00,pkn,1.20
2023-04-12T13:26:00,pkn,1.20
2023-04-12T13:28:00,pkn,1.20
2023-04-12T13:31:00,pkn,1.20
2023-04-12T13:32:00,pkn,1.20
2023-04-12T13:34:00,pkn,1.20
2023-04-12T13:36:00,pkn,3.60
2023-04-12T13:38:00,pkn,2.40
2023-04-12T13:39:00,pkn,2.40
2023-04-12T13:40:00,pkn,1.20
2023-04-12T13:41:00,pkn,1.20
2023-04-12T13:43:00,pkn,2.40
2023-04-12T13:45:00,pkn,2.40
2023-04-12T13:46:00,pkn,4.80
2023-04-12T13:48:00,pkn,9.60
2023-04-12T13:49:00,pkn,4.80
2023-04-12T13:51:00,pkn,8.40
2023-04-12T13:52:00,pkn,6.00
2023-04-12T13:53:00,pkn,3.60
2023-04-12T13:54:00,pkn,4.80
2023-04-12T13:56:00,pkn,2.40
2023-04-12T13:58:00,pkn,1.20
2023-04-12T14:01:00,pkn,1.20
2023-04-12T14:03:00,pkn,2.40
2023-04-12T14:05:00,pkn,3.60
2023-04-12T14:06:00,pkn,2.40
2023-04-12T14:09:00,pkn,3.60
2023-04-12T14:10:00,pkn,4.80
2023-04-12T14:11:00,pkn,1.20
2023-04-12T14:12:00,pkn,2.40
2023-04-12T14:14:00,pkn,3.60
2023-04-12T14:15:00,pkn,1.20
2023-04-12T14:17:00,pkn,4.80
2023-04-12T14:18:00,pkn,1.20
2023-04-12T14:19:00,pkn,2.40
2023-04-12T14:21:00,pkn,6.00
2023-04-12T14:22:00,pkn,6.00
2023-04-12T14:24:00,pkn,12.00
2023-04-12T14:25:00,pkn,4.80
2023-04-12T14:27:00,pkn,12.00
2023-04-12T14:29:00,pkn,12.00
2023-04-12T14:30:00,pkn,2.40
2023-04-12T14:32:00,pkn,3.60
2023-04-12T14:34:00,pkn,3.60
2023-04-12T14:36:00,pkn,3.60
2023-04-12T14:37:00,pkn,1.20
2023-04-12T14:39:00,pkn,3.60
2023-04-12T14:40:00,pkn,2.40
2023-04-12T14:42:00,pkn,3.60
2023-04-12T14:43:00,pkn,1.20
2023-04-12T14:45:00,pkn,3.60
2023-04-12T14:47:00,pkn,3.60
2023-04-12T14:49:00,pkn,3.60
2023-04-12T14:52:00,pkn,6.00
2023-04-12T14:53:00,pkn,1.20
2023-04-12T14:55:00,pkn,3.60
2023-04-12T14:56:00,pkn,2.40
2023-04-12T14:57:00,pkn,1.20
2023-04-12T14:59:00,pkn,3.60
2023-04-12T15:01:00,pkn,10.80
2023-04-12T15:03:00,pkn,12.00
2023-04-12T15:04:00,pkn,6.00
2023-04-12T15:06:00,pkn,12.00
2023-04-12T15:08:00,pkn,9.60
2023-04-12T15:10:00,pkn,3.60
2023-04-12T15:11:00,pkn,1.20
2023-04-12T15:13:00,pkn,3.60
2023-04-12T15:15:00,pkn,3.60
2023-04-12T15:17:00,pkn,4.80
2023-04-12T15:19:00,pkn,3.60
2023-04-12T15:20:00,pkn,2.40
2023-04-12T15:22:00,pkn,3.60
2023-04-12T15:23:00,pkn,2.40
2023-04-12T15:25:00,pkn,4.80
2023-04-12T15:26:00,pkn,1.20
2023-04-12T15:28:00,pkn,4.80
2023-04-12T15:29:00,pkn,2.40
2023-04-12T15:30:00,pkn,2.40
2023-04-12T15:32:00,pkn,3.60
2023-04-12T15:34:00,pkn,4.80
2023-04-12T15:35:00,pkn,1.20
2023-04-12T15:37:00,pkn,3.60
2023-04-12T15:38:00,pkn,2.40
2023-04-12T15:40:00,pkn,3.60
2023-04-12T15:42:00,pkn,3.60
2023-04-12T15:44:00,pkn,3.60
2023-04-12T15:45:00,pkn,6.00
2023-04-12T15:46:00,pkn,6.00
2023-04-12T15:48:00,pkn,12.00
2023-04-12T15:50:00,pkn,10.80
2023-04-12T15:52:00,pkn,12.00
2023-04-12T15:53:00,pkn,2.40
2023-04-12T15:55:00,pkn,3.60
2023-04-12T15:57:00,pkn,3.60
2023-04-12T15:59:00,pkn,3.60
2023-04-12T16:00:00,pkn,2.40
2023-04-12T16:01:00,pkn,2.40
2023-04-12T16:02:00,pkn,1.20
2023-04-12T16:04:00,pkn,3.60
2023-04-12T16:06:00,pkn,4.80
2023-04-12T16:08:00,pkn,3.60
2023-04-12T16:10:00,pkn,3.60
2023-04-12T16:11:00,pkn,2.40
2023-04-12T16:13:00,pkn,3.60
2023-04-12T16:15:00,pkn,3.60
2023-04-12T16:17:00,pkn,4.80
2023-04-12T16:19:00,pkn,3.60
2023-04-12T16:20:00,pkn,2.40
2023-04-12T16:22:00,pkn,3.60
2023-04-12T16:23:00,pkn,3.60
2023-04-12T16:24:00,pkn,3.60
2023-04-12T16:26:00,pkn,3.60
2023-04-12T16:28:00,pkn,3.60
2023-04-12T16:30:00,pkn,3.60
2023-04-12T16:32:00,pkn,3.60
2023-04-12T16:34:00,pkn,3.60
2023-04-12T16:36:00,pkn,7.20
2023-04-12T16:37:00,pkn,7.20
2023-04-12T16:39:00,pkn,10.80
2023-04-12T16:40:00,pkn,6.00
2023-04-12T16:41:00,pkn,2.40
2023-04-12T16:42:00,pkn,7.20
2023-04-12T16:43:00,pkn,8.40
2023-04-12T16:45:00,pkn,3.60
2023-04-12T16:47:00,pkn,3.60
2023-04-12T16:49:00,pkn,3.60
2023-04-12T16:50:00,pkn,1.20
2023-04-12T16:51:00,pkn,2.40
2023-04-12T16:53:00,pkn,3.60
2023-04-12T16:55:00,pkn,3.60
2023-04-12T16:56:00,pkn,1.20
2023-04-12T16:58:00,pkn,3.60
2023-04-12T17:00:00,pkn,3.60
2023-04-12T17:01:00,pkn,2.40
2023-04-12T17:03:00,pkn,3.60
2023-04-12T17:05:00,pkn,3.60
2023-04-12T17:07:00,pkn,3.60
2023-04-12T17:09:00,pkn,3.60
2023-04-12T17:10:00,pkn,2.40
2023-04-12T17:11:00,pkn,2.40
2023-04-12T17:12:00,pkn,1.20
2023-04-12T17:14:00,pkn,4.80
2023-04-12T17:16:00,pkn,3.60
2023-04-12T17:17:00,pkn,1.20
2023-04-12T17:19:00,pkn,3.60
2023-04-12T17:21:00,pkn,3.60
2023-04-12T17:22:00,pkn,2.40
2023-04-12T17:24:00,pkn,3.60
2023-04-12T17:25:00,pkn,1.20
2023-04-12T17:27:00,pkn,3.60
2023-04-12T17:29:00,pkn,3.60
2023-04-12T17:31:00,pkn,3.60
2023-04-12T17:32:00,pkn,2.40
2023-04-12T17:34:00,pkn,3.60
2023-04-12T17:36:00,pkn,3.60
2023-04-12T17:38:00,pkn,3.60
2023-04-12T17:40:00,pkn,12.00
2023-04-12T17:41:00,pkn,4.80
2023-04-12T17:42:00,pkn,7.20
2023-04-12T17:43:00,pkn,2.40
2023-04-12T17:44:00,pkn,10.80
2023-04-12T17:46:00,pkn,10.80
2023-04-12T17:48:00,pkn,3.60
2023-04-12T17:49:00,pkn,1.20
2023-04-12T17:51:00,pkn,3.60
2023-04-12T17:52:00,pkn,2.40
2023-04-12T17:54:00,pkn,3.60
2023-04-12T17:56:00,pkn,3.60
2023-04-12T17:58:00,pkn,3.60
2023-04-12T17:59:00,pkn,1.20
2023-04-12T18:01:00,pkn,3.60
2023-04-12T18:03:00,pkn,3.60
2023-04-12T18:05:00,pkn,3.60
2023-04-12T18:06:00,pkn,2.40
2023-04-12T18:08:00,pkn,3.60
2023-04-12T18:10:00,pkn,3.60
2023-04-12T18:11:00,pkn,2.40
2023-04-12T18:13:00,pkn,3.60
2023-04-12T18:14:00,pkn,1.20
2023-04-12T18:16:00,pkn,3.60
2023-04-12T18:17:00,pkn,2.40
2023-04-12T18:18:00,pkn,1.20
2023-04-12T18:20:00,pkn,3.60
2023-04-12T18:21:00,pkn,2.40
2023-04-12T18:22:00,pkn,1.20
2023-04-12T18:23:00,pkn,2.40
2023-04-12T18:25:00,pkn,3.60
2023-04-12T18:27:00,pkn,3.60
2023-04-12T18:28:00,pkn,1.20
2023-04-12T18:30:00,pkn,3.60
2023-04-12T18:32:00,pkn,3.60
2023-04-12T18:34:00,pkn,3.60
2023-04-12T18:36:00,pkn,3.60
2023-04-12T18:38:00,pkn,3.60
2023-04-12T18:40:00,pkn,3.60
2023-04-12T18:42:00,pkn,3.60
2023-04-12T18:43:00,pkn,2.40
2023-04-12T18:44:00,pkn,1.20
2023-04-12T18:46:00,pkn,3.60
2023-04-12T18:47:00,pkn,2.40
2023-04-12T18:49:00,pkn,3.60
2023-04-12T18:50:00,pkn,3.60
2023-04-12T18:52:00,pkn,9.60
2023-04-12T18:53:00,pkn,3.60
2023-04-12T18:55:00,pkn,9.60
2023-04-12T18:56:00,pkn,4.80
2023-04-12T18:58:00,pkn,16.80
2023-04-12T19:00:00,pkn,16.80
2023-04-12T19:02:00,pkn,14.40
2023-04-12T19:03:00,pkn,8.40
2023-04-12T19:05:00,pkn,8.40
2023-04-12T19:07:00,pkn,3.60
2023-04-12T19:08:00,pkn,3.60
2023-04-12T19:10:00,pkn,6.00
2023-04-12T19:11:00,pkn,2.40
2023-04-12T19:12:00,pkn,3.60
2023-04-12T19:14:00,pkn,6.00
2023-04-12T19:15:00,pkn,6.00
2023-04-12T19:17:00,pkn,14.40
2023-04-12T19:18:00,pkn,7.20
2023-04-12T19:20:00,pkn,13.20
2023-04-12T19:22:00,pkn,16.80
2023-04-12T19:23:00,pkn,6.00
2023-04-12T19:24:00,pkn,6.00
2023-04-12T19:26:00,pkn,15.60
2023-04-12T19:28:00,pkn,12.00
2023-04-12T19:30:00,pkn,8.40
2023-04-12T19:32:00,pkn,4.80
2023-04-12T19:33:00,pkn,2.40
2023-04-12T19:35:00,pkn,7.20
2023-04-12T19:37:00,pkn,3.60
2023-04-12T19:38:00,pkn,4.80
2023-04-12T19:39:00,pkn,3.60
2023-04-12T19:41:00,pkn,8.40
2023-04-12T19:43:00,pkn,8.40
2023-04-12T19:44:00,pkn,1.20
2023-04-12T19:46:00,pkn,3.60
2023-04-12T19:48:00,pkn,8.40
2023-04-12T19:50:00,pkn,3.60
2023-04-12T19:52:00,pkn,7.20
2023-04-12T19:53:00,pkn,3.60
2023-04-12T19:55:00,pkn,14.40
2023-04-12T19:57:00,pkn,15.60
2023-04-12T19:59:00,pkn,12.00
2023-04-12T20:01:00,pkn,15.60
2023-04-12T20:02:00,pkn,3.60
2023-04-12T20:04:00,pkn,4.80
2023-04-12T20:06:00,pkn,8.40
2023-04-12T20:07:00,pkn,4.80
2023-04-12T20:09:00,pkn,6.00
2023-04-12T20:10:00,pkn,2.40
2023-04-12T20:12:00,pkn,8.40
2023-04-12T20:14:00,pkn,8.40
2023-04-12T20:15:00,pkn,3.60
2023-04-12T20:17:00,pkn,4.80
2023-04-12T20:18:00,pkn,2.40
2023-04-12T20:19:00,pkn,4.80
2023-04-12T20:20:00,pkn,3.60
2023-04-12T20:22:00,pkn,7.20
2023-04-12T20:24:00,pkn,8.40
2023-04-12T20:26:00,pkn,4.80
2023-04-12T20:27:00,pkn,2.40
2023-04-12T20:29:00,pkn,4.80
2023-04-12T20:31:00,pkn,3.60
2023-04-12T20:33:00,pkn,4.80
2023-04-12T20:34:00,pkn,2.40
2023-04-12T20:36:00,pkn,4.80
2023-04-12T20:38:00,pkn,3.60
2023-04-12T20:39:00,pkn,2.40
2023-04-12T20:41:00,pkn,10.80
2023-04-12T20:43:00,pkn,10.80
2023-04-12T20:44:00,pkn,7.20
2023-04-12T20:46:00,pkn,10.80
2023-04-12T20:48:00,pkn,10.80
2023-04-12T20:49:00,pkn,2.40
2023-04-12T20:51:00,pkn,4.80
2023-04-12T20:53:00,pkn,3.60
2023-04-12T20:55:00,pkn,4.80
2023-04-12T20:57:00,pkn,4.80
2023-04-12T20:59:00,pkn,3.60
2023-04-12T21:01:00,pkn,4.80
2023-04-12T21:02:00,pkn,2.40
2023-04-12T21:04:00,pkn,3.60
2023-04-12T21:06:00,pkn,4.80
2023-04-12T21:07:00,pkn,1.20
2023-04-12T21:08:00,pkn,2.40
2023-04-12T21:10:00,pkn,2.40
2023-04-12T21:11:00,pkn,1.20
2023-04-12T21:13:00,pkn,9.60
2023-04-12T21:14:00,pkn,4.80
2023-04-12T21:16:00,pkn,9.60
2023-04-12T21:17:00,pkn,6.00
2023-04-12T21:19:00,pkn,9.60
2023-04-12T21:21:00,pkn,9.60
2023-04-12T21:23:00,pkn,10.80
2023-04-12T21:25:00,pkn,10.80
2023-04-12T21:27:00,pkn,6.00
2023-04-12T21:29:00,pkn,1.20
2023-04-12T21:31:00,pkn,2.40
2023-04-12T21:33:00,pkn,1.20
2023-04-12T21:35:00,pkn,2.40
2023-04-12T21:36:00,pkn,1.20
2023-04-12T21:39:00,pkn,2.40
2023-04-12T21:41:00,pkn,1.20
2023-04-12T21:43:00,pkn,1.20
2023-04-12T21:45:00,pkn,1.20
2023-04-12T21:47:00,pkn,2.40
2023-04-12T21:49:00,pkn,9.60
2023-04-12T21:51:00,pkn,9.60
2023-04-12T21:52:00,pkn,4.80
2023-04-12T21:54:00,pkn,9.60
2023-04-12T21:55:00,pkn,6.00
2023-04-12T21:57:00,pkn,4.80
2023-04-12T21:59:00,pkn,1.20
2023-04-12T22:01:00,pkn,2.40
2023-04-12T22:03:00,pkn,1.20
2023-04-12T22:04:00,pkn,1.20
2023-04-12T22:06:00,pkn,1.20
2023-04-12T22:08:00,pkn,1.20
2023-04-12T22:09:00,pkn,1.20
2023-04-12T22:11:00,pkn,1.20
2023-04-12T22:13:00,pkn,2.40
2023-04-12T22:15:00,pkn,2.40
2023-04-12T22:17:00,pkn,1.20
2023-04-12T22:19:00,pkn,2.40
2023-04-12T22:21:00,pkn,1.20
2023-04-12T22:23:00,pkn,2.40
2023-04-12T22:25:00,pkn,2.40
2023-04-12T22:27:00,pkn,10.80
2023-04-12T22:29:00,pkn,9.60
2023-04-12T22:30:00,pkn,4.80
2023-04-12T22:32:00,pkn,10.80
2023-04-12T22:34:00,pkn,4.80
2023-04-12T22:35:00,pkn,1.20
2023-04-12T22:37:00,pkn,1.20
2023-04-12T22:39:00,pkn,2.40
2023-04-12T22:41:00,pkn,1.20
2023-04-12T22:42:00,pkn,1.20
2023-04-12T22:43:00,pkn,1.20
2023-04-12T22:45:00,pkn,1.20
2023-04-12T22:47:00,pkn,2.40
2023-04-12T22:49:00,pkn,1.20
2023-04-12T22:51:00,pkn,2.40
2023-04-12T22:53:00,pkn,2.40
2023-04-12T22:54:00,pkn,1.20
2023-04-12T22:56:00,pkn,1.20
2023-04-12T22:57:00,pkn,1.20
2023-04-12T22:59:00,pkn,1.20
2023-04-12T23:01:00,pkn,2.40
2023-04-12T23:02:00,pkn,1.20
2023-04-12T23:03:00,pkn,1.20
2023-04-12T23:05:00,pkn,1.20
2023-04-12T23:06:00,pkn,4.80
2023-04-12T23:08:00,pkn,10.80
2023-04-12T23:10:00,pkn,9.60
2023-04-12T23:12:00,pkn,10.80
2023-04-12T23:14:00,pkn,9.60
2023-04-12T23:16:00,pkn,9.60
2023-04-12T23:18:00,pkn,9.60
2023-04-12T23:20:00,pkn,9.60
2023-04-12T23:22:00,pkn,10.80
2023-04-12T23:23:00,pkn,6.00